DELTA 1 DEB, 12000

Orbit data source: Space-Track

DELTA 1 DEB, 12000 is space debris in SSO originally from a launch on Tue, 06 Nov 1973 UTC launched from the Air Force Western Test Range (AFWTR). Debris objects in space refer to the collection of defunct objects orbiting the Earth. Examples of debris include non-operational satellites, rocket bodies, and fragments generated from explosions, collisions, or faulty payload assembly.

Loading next visibility...
Identifier
12000, 1973-086GL
Orbit
SSO
Country
Flag of USUS
Related business
Manufacturer
Unknown
Mission
Spacecraft
Bus & Motor
Unknown
Mass
Unknown
Launch date (UTC)
1973-11-06 (52 years ago)
Launch vehicle
Unknown
Launch site
Air Force Western Test Range (AFWTR)
Object type
Payload
Rocket body
Debris
Shape & HBR
Unknown shape, 0.1 m
Radar Cross Section
Small (<0.1 m²)

Expand to show TLE details & history
Last TLE update: 2 days ago

TLE from 2 days ago
0 DELTA 1 DEB
1 12000U 73086GL  25295.90472869 -.00000004  00000-0  32860-3 0  9992
2 12000 102.3615 286.0842 0021767  60.5901 332.5252 12.36392224518636
Epoch: 2025-10-22T21:42Z
TLE epoch observation values (Epoch: 2025-10-22T21:42:48.558Z)
Latitude
32.19872°
Longitude
-79.0832°
Altitude
1,510.499 km
Speed
7.119 km/s
True Right ascension
18h 32m 45s
True Declination
32° 03' 31"
Sunlit
Object was in daylight at epoch
Visualization orbit readout
Latitude
Unknown
Longitude
Unknown
Altitude
Unknown
Speed
Unknown
Apparent Right ascension
Unknown
Apparent Declination
Unknown
Sunlit
N/A
Visualization observer readout
Local Sidereal Time
19:58:30
Azimuth
Unknown
Elevation
Unknown
Doppler factor
Unknown
Orbital elements
Apogee altitude
1,536.726 km
Perigee altitude
1,502.344 km
Semi-major axis
7,897.672 km
Eccentricity
0.00218
Inclination
102.3615°
RAAN
286.0842°
Arg. of periapsis
60.5901°
True anomaly
332.40984°
Mean anomaly
332.5252°
Eccentric anomaly
332.46755°
Mean motion
3.09239 °/min
Orbital period
116.41 mins
BSTAR
0.0003286
Loading maneuver chart data...
Computing Atmospheric mass density...

Documentation

Showing up to 5 results
|